STARLINK-31966, 59944

Orbit data source: Space-Track

STARLINK-31966, 59944 is a payload satellite owned by SpaceX/Seattle (US) in LEO that was launched on Sat, 01 Jun 2024 UTC via an FALCON 9 launch vehicle from the Air Force Eastern Test Range (AFETR). Payload-class satellites include a variety of spacecraft equipped with specific instruments for various scientific and technological missions. These include communications satellites like Starlink; space stations such as the ISS; scientific satellites like the Hubble; Earth observation satellites from companies like Planet Labs, Umbra, and HawkEye 360; GPS; miniature CubeSats for education and research; and military/defense satellites.

Loading next visibility...
Identifier
59944, 2024-106Y
Orbit
LEO
Country
Flag of USUS
Related business
Manufacturer
SpaceX/Seattle
Mission
Operational Commercial Communications
Bus & Motor
STARLINK V2M, Unknown motor
Mass
730 kg wet, ~700 kg dry
Launch date (UTC)
2024-06-01 (2 years ago)
Launch vehicle
FALCON 9
Launch site
Air Force Eastern Test Range (AFETR)
Object type
Payload
Rocket body
Debris
Shape & HBR
Box + 2 Pan, 17.7 m
Radar Cross Section
33.884 m², Large (>1 m²)

Expand to show TLE details & history
Last TLE update: 10 hours ago

TLE from 10 hours ago
0 STARLINK-31966
1 59944U 24106Y   26123.76201441  .00001240  00000-0  54590-4 0  9997
2 59944  43.0039  21.6531 0001069 273.1606  86.9123 15.27575216108998
Epoch: 2026-05-03T18:17Z
TLE epoch observation values (Epoch: 2026-05-03T18:17:18.045Z)
Latitude
-0.00002°
Longitude
-114.33303°
Altitude
482.8 km
Speed
7.626 km/s
True Right ascension
01h 26m 36s
True Declination
0° 00' 00"
Sunlit
Object was in daylight at epoch
Visualization orbit readout
Latitude
Unknown
Longitude
Unknown
Altitude
Unknown
Speed
Unknown
Apparent Right ascension
Unknown
Apparent Declination
Unknown
Sunlit
N/A
Visualization observer readout
Local Sidereal Time
11:50:28
Azimuth
Unknown
Elevation
Unknown
Doppler factor
Unknown
Orbital elements
Apogee altitude
485.742 km
Perigee altitude
484.274 km
Semi-major axis
6,863.145 km
Eccentricity
0.00011
Inclination
43.0039°
RAAN
21.6531°
Arg. of periapsis
273.1606°
True anomaly
86.92453°
Mean anomaly
86.9123°
Eccentric anomaly
86.91842°
Mean motion
3.81732 °/min
Orbital period
94.31 mins
BSTAR
0.00005459
Loading maneuver chart data...
Computing Atmospheric mass density...
Loading historical data...
Loading historical data...
Loading historical data...
Loading historical data...
Loading historical data...
Loading historical data...
Loading historical data...

Documentation

Showing up to 5 results
|